[[{"header":{"parameterUnit":"m.s-1","parameterCategory":1,"la1":30.2991,"la2":30.254,"lo1":-89.0895,"lo2":-89.0444,"dy":0.0017,"dx":0.0017,"nx":28,"ny":28,"refTime":"2025-05-28T03:00:00:Z","depth":0,"parameterNumber":2,"parameterNumberName":"U-component_of_WINDS"},"data":[0,0,0,0,0,0,0,0,0,0,0,0,0,0,0,0,0,0,0,0,0,0,0,0,0,0,0,0,0,0,0,0,0,0,0,0,0,0,0,0,0,0,0,0,0,0,0,0,0,0,0,0,0,0,0,0,0,0,0.6228,0.6228,0,0.6315,0.6316,0.6317,0.6298,0.6297,0.6295,0.6294,0.6384,0.6387,0.6391,0,0,0,0,0,0,0,0,0,0,0,0,0,0.6045,0.6049,0.6227,0.6229,0.623,0.6314,0.6316,0.6317,0.6299,0.6297,0.6295,0.6293,0.6382,0.6387,0.6392,0,0,0,0,0,0,0,0,0,0,0,0,0,0.6128,0.605,0.6227,0.6231,0.6232,0.6314,0.6316,0.6317,0.6299,0.6297,0.6294,0.6292,0.6381,0.6386,0.6392,0.6477,0,0,0.641,0.6413,0,0,0,0,0,0,0,0,0.6123,0.6134,0.6229,0.6231,0.6232,0.6293,0.6284,0.6371,0.63,0.6274,0.6294,0.6291,0.6355,0.6363,0.6385,0.6481,0.6485,0.6411,0.6414,0.6417,0.6418,0,0,0,0,0,0,0,0.6117,0.613,0.6262,0.6231,0.6232,0.6228,0.6237,0.6301,0.6327,0.6276,0.6275,0.6285,0.6356,0.6379,0.6387,0.6486,0.641,0.6416,0.6419,0.6421,0.6654,0.6657,0,0,0,0,0,0,0.611,0.6126,0.6259,0.6265,0.617,0.6233,0.6243,0.6276,0.6326,0.6332,0.6287,0.6284,0.6371,0.638,0.639,0.6491,0.6417,0.6422,0.6425,0.6652,0.6655,0.6658,0,0,0,0,0,0,0.6106,0.6122,0.6256,0.6195,0.6212,0.6239,0.6276,0.6279,0.6302,0.6335,0.634,0.6306,0.6369,0.6382,0.6455,0.6494,0.6425,0.643,0.6649,0.6653,0.6656,0.6695,0,0,0,0,0,0,0.6101,0.6121,0.6153,0.6196,0.6215,0.6319,0.6278,0.6282,0.6313,0.6309,0.6354,0.6359,0.6368,0.6446,0.6461,0.6501,0.6435,0.6645,0.665,0.6655,0.669,0.67,0.6708,0,0,0,0,0,0.6095,0.6161,0.6155,0.6171,0.6256,0.6322,0.6332,0.6341,0.6316,0.6348,0.6369,0.6358,0.6488,0.6454,0.647,0.6512,0.6643,0.6649,0.6655,0.6686,0.6698,0.6707,0,0,0,0,0,0,0.6123,0.6167,0.6161,0.6243,0.6279,0.6318,0.636,0.6353,0.6397,0.6392,0.6401,0.6412,0.6486,0.6507,0.6468,0.6596,0.6562,0.6571,0.658,0.6591,0.66,0.6593,0.6439,0,0,0,0,0,0.6139,0.6188,0.6224,0.6293,0.6311,0.6333,0.6361,0.6365,0.6402,0.6418,0.6444,0.6481,0.6529,0.6562,0.6609,0.6693,0.6702,0.673,0.6739,0.6746,0.6754,0.6799,0.6812,0.6678,0.6678,0.6678,0,0,0.6172,0.6202,0.6233,0.6299,0.6328,0.6378,0.6345,0.6401,0.6438,0.6426,0.6496,0.6517,0.6559,0.6637,0.6674,0.6657,0.6793,0.6754,0.6759,0.6763,0.6807,0.6819,0.6831,0.6682,0.6681,0.668,0,0,0.6258,0.6286,0.6346,0.6375,0.6418,0.6431,0.6446,0.6486,0.6499,0.657,0.6561,0.6606,0.6691,0.6721,0.6747,0.6843,0.6834,0.6859,0.6904,0.6948,0.6959,0.6968,0.7001,0.7013,0.6867,0.6867,0.6867,0,0.6294,0.637,0.6378,0.6434,0.6463,0.6454,0.6514,0.6542,0.6598,0.6618,0.6599,0.6704,0.6732,0.6817,0.684,0.6862,0.6878,0.6853,0.6957,0.6966,0.6975,0.7007,0.702,0.6869,0.6869,0.6869,0.6868,0,0.6411,0.6464,0.6507,0.6561,0.6595,0.6653,0.667,0.6703,0.6704,0.6719,0.6791,0.6824,0.6877,0.6897,0.6899,0.6983,0.6971,0.6954,0.6919,0.699,0.702,0.7033,0.6873,0.6872,0.6871,0.6871,0,0,0.6517,0.6574,0.659,0.6613,0.666,0.6701,0.6758,0.6809,0.6838,0.6877,0.6925,0.6996,0.698,0.701,0.7015,0.7054,0.7127,0.7032,0.7033,0.7047,0.722,0.7231,0.7245,0.7121,0.7124,0.7125,0.7216,0,0.6606,0.6707,0.6716,0.6806,0.6855,0.6846,0.6896,0.693,0.6946,0.6989,0.7007,0.7057,0.7034,0.7051,0.7089,0.711,0.7161,0.7103,0.7165,0.7167,0.7154,0.7261,0.7274,0.7358,0.7228,0.723,0.7231,0,0.6724,0.6766,0.6861,0.6899,0.692,0.6965,0.7012,0.7054,0.7092,0.71,0.7133,0.7133,0.7191,0.7155,0.7235,0.7196,0.7222,0.7236,0.7239,0.7244,0.7203,0.7269,0.7385,0.7397,0.725,0.7249,0.7247,0,0.679,0.687,0.6937,0.6958,0.7005,0.7036,0.7057,0.7093,0.7123,0.7165,0.7184,0.7232,0.7258,0.7295,0.7307,0.728,0.7387,0.7352,0.7396,0.7395,0.7418,0.7416,0.7539,0.7436,0.7436,0.7436,0.7436,0,0.6888,0.6946,0.6967,0.7008,0.7073,0.7082,0.7146,0.7166,0.7197,0.7242,0.7238,0.728,0.7294,0.7338,0.7348,0.7413,0.7425,0.7434,0.7435,0.7434,0.7432,0.745,0.7444,0.7439,0.7439,0.7438,0.7437,0,0.6972,0.6989,0.7061,0.71,0.7111,0.7157,0.7189,0.7229,0.7244,0.7301,0.7314,0.7339,0.739,0.7406,0.7469,0.7476,0.7551,0.7548,0.7538,0.7538,0.758,0.7576,0.7718,0.7737,0.7623,0.7624,0.7625,0,0.7033,0.7078,0.7121,0.715,0.7172,0.722,0.725,0.7261,0.7293,0.7339,0.7373,0.7424,0.7466,0.7549,0.7572,0.762,0.7617,0.7664,0.7624,0.7621,0.7617,0.7613,0.7617,0.7671,0.7672,0.7673,0.7674,0,0.7139,0.7145,0.7188,0.7235,0.7271,0.7309,0.7345,0.7369,0.7385,0.7421,0.7474,0.7506,0.757,0.762,0.7669,0.7691,0.7685,0.7686,0.7699,0.7696,0.7688,0.7692,0.7557,0.7683,0.7682,0.7681,0.7681,0.768,0.7213,0.7251,0.7287,0.7336,0.7364,0.7398,0.7436,0.7456,0.75,0.7553,0.7557,0.7614,0.765,0.7714,0.7739,0.7783,0.777,0.7788,0.7792,0.7796,0.7799,0.7682,0.7792,0.7792,0.7792,0.7791,0.7791,0,0.7317,0.734,0.7384,0.7434,0.7473,0.7464,0.7503,0.7536,0.7586,0.762,0.7661,0.7721,0.777,0.7797,0.7846,0.7876,0.7875,0.7889,0.7886,0.7891,0.7809,0.7793,0.7889,0.7889,0.7889,0.7889,0.7889,0.7889,0.7376,0.744,0.745,0.7529,0.7551,0.7606,0.7629,0.766,0.7688,0.7755,0.7795,0.7813,0.7844,0.7895,0.7939,0.7946,0.7964,0.7979,0.7984,0.7907,0.7897,0.7887,0.7872,0.7983,0.7983,0.8062,0.8063,0.8063]},{"header":{"parameterUnit":"m.s-1","parameterCategory":1,"la1":30.2991,"la2":30.254,"lo1":-89.0895,"lo2":-89.0444,"dy":0.0017,"dx":0.0017,"nx":28,"ny":28,"refTime":"2025-05-28T03:00:00:Z","depth":0,"parameterNumber":3,"parameterNumberName":"V-component_of_WINDS"},"data":[0,0,0,0,0,0,0,0,0,0,0,0,0,0,0,0,0,0,0,0,0,0,0,0,0,0,0,0,0,0,0,0,0,0,0,0,0,0,0,0,0,0,0,0,0,0,0,0,0,0,0,0,0,0,0,0,0,0,1.8567,1.8567,0,1.8545,1.8545,1.8545,1.8503,1.8502,1.8501,1.8501,1.8477,1.8477,1.8478,0,0,0,0,0,0,0,0,0,0,0,0,0,1.8572,1.8572,1.8568,1.8567,1.8567,1.8545,1.8545,1.8545,1.8503,1.8502,1.8501,1.85,1.8477,1.8477,1.8478,0,0,0,0,0,0,0,0,0,0,0,0,0,1.8562,1.8572,1.8568,1.8544,1.8541,1.8545,1.8545,1.8545,1.8503,1.8502,1.8501,1.85,1.8477,1.8477,1.8478,1.8503,0,0,1.8478,1.8478,0,0,0,0,0,0,0,0,1.8562,1.8562,1.8547,1.8545,1.8543,1.8526,1.8538,1.8531,1.8504,1.8518,1.8501,1.8499,1.8494,1.8493,1.8492,1.8502,1.8501,1.8478,1.8478,1.8478,1.8479,0,0,0,0,0,0,0,1.8563,1.8562,1.8559,1.8547,1.8544,1.8533,1.853,1.8536,1.8513,1.8516,1.8513,1.8511,1.8493,1.8491,1.8491,1.8501,1.8478,1.8478,1.8479,1.8479,1.8528,1.8529,0,0,0,0,0,0,1.8568,1.8563,1.8559,1.8558,1.855,1.8534,1.8531,1.8532,1.8513,1.8509,1.8512,1.8509,1.8492,1.8491,1.849,1.8517,1.8478,1.8479,1.8479,1.8527,1.8528,1.853,0,0,0,0,0,0,1.8568,1.8568,1.856,1.856,1.8558,1.8535,1.8537,1.8532,1.8531,1.851,1.8505,1.8515,1.8491,1.8489,1.85,1.8515,1.8479,1.8479,1.8526,1.8527,1.8529,1.8572,0,0,0,0,0,0,1.8568,1.8568,1.8578,1.856,1.8558,1.8571,1.8538,1.8533,1.8532,1.8528,1.8511,1.8508,1.849,1.8499,1.85,1.8515,1.8479,1.8524,1.8526,1.8529,1.8569,1.8575,1.858,0,0,0,0,0,1.8568,1.8592,1.8579,1.8579,1.8571,1.8572,1.8571,1.855,1.8533,1.8543,1.8528,1.8508,1.8514,1.8501,1.8501,1.8516,1.8523,1.8526,1.8528,1.8567,1.8574,1.858,0,0,0,0,0,0,1.8613,1.8589,1.8575,1.8593,1.8585,1.8565,1.8577,1.8559,1.8555,1.8552,1.8526,1.8522,1.8535,1.8527,1.8513,1.8539,1.8515,1.8518,1.8544,1.8551,1.8556,1.8558,1.8479,0,0,0,0,0,1.8624,1.8628,1.8607,1.8625,1.8622,1.86,1.86,1.8584,1.8575,1.8572,1.8558,1.855,1.8549,1.8549,1.8548,1.8567,1.8562,1.8578,1.8583,1.8588,1.8591,1.8598,1.8605,1.8539,1.8539,1.8538,0,0,1.8649,1.8636,1.8641,1.8634,1.8626,1.8629,1.8598,1.8604,1.8606,1.8572,1.8581,1.8571,1.8559,1.8573,1.8579,1.8567,1.8608,1.8591,1.8595,1.8595,1.8602,1.8608,1.8614,1.854,1.854,1.854,0,0,1.8696,1.8687,1.87,1.8692,1.868,1.8665,1.8668,1.8651,1.8643,1.865,1.8625,1.8626,1.8627,1.8619,1.8615,1.8656,1.8636,1.8656,1.8685,1.8693,1.8698,1.8702,1.8716,1.8721,1.8659,1.8659,1.8659,0,1.8728,1.8733,1.8709,1.8716,1.8713,1.8682,1.8694,1.8688,1.8676,1.8674,1.866,1.8658,1.8648,1.8659,1.8669,1.8667,1.8669,1.8658,1.8699,1.8703,1.8707,1.8719,1.8725,1.8661,1.8661,1.8661,1.866,0,1.8772,1.8776,1.8788,1.8776,1.8774,1.8784,1.8761,1.8762,1.8745,1.8731,1.8739,1.8725,1.872,1.8721,1.8706,1.8729,1.8722,1.8704,1.8679,1.8716,1.8727,1.8732,1.8665,1.8664,1.8663,1.8662,0,0,1.8848,1.8821,1.8826,1.8819,1.8803,1.8805,1.8812,1.8806,1.8806,1.8798,1.8803,1.8803,1.8785,1.8781,1.8764,1.8771,1.8802,1.8751,1.8751,1.876,1.8825,1.8838,1.8844,1.8788,1.8789,1.879,1.8826,0,1.889,1.8902,1.8879,1.8896,1.8898,1.8867,1.8873,1.8863,1.8849,1.8848,1.8833,1.8833,1.881,1.8807,1.8813,1.8797,1.8814,1.8794,1.8792,1.8792,1.8795,1.885,1.8865,1.89,1.883,1.8831,1.8831,0,1.8942,1.8936,1.8952,1.8932,1.8932,1.8938,1.8929,1.8929,1.8916,1.8906,1.8899,1.8879,1.8883,1.8859,1.8864,1.8851,1.8848,1.884,1.8841,1.884,1.8814,1.885,1.891,1.8916,1.8838,1.8838,1.8837,0,1.8994,1.899,1.8999,1.8994,1.8971,1.8976,1.8966,1.8952,1.8949,1.8941,1.8938,1.8932,1.8928,1.8922,1.89,1.8885,1.8907,1.8881,1.8897,1.8898,1.8903,1.8903,1.8964,1.8903,1.8902,1.8902,1.8902,0,1.9044,1.9055,1.9021,1.9027,1.9037,1.9011,1.9022,1.9009,1.8996,1.8998,1.8971,1.8972,1.8943,1.8941,1.8923,1.8929,1.8928,1.8919,1.8914,1.8921,1.8922,1.8919,1.8916,1.8904,1.8903,1.8903,1.8903,0,1.9105,1.9083,1.909,1.9067,1.9061,1.907,1.905,1.9053,1.9037,1.9039,1.9038,1.9012,1.9009,1.8985,1.8977,1.8964,1.8976,1.8967,1.8981,1.8978,1.8994,1.8993,1.9054,1.9061,1.8996,1.8997,1.8997,0,1.9138,1.9145,1.9123,1.9121,1.9113,1.9112,1.9108,1.9082,1.9079,1.9063,1.9068,1.9061,1.9055,1.905,1.9031,1.9023,1.9013,1.9035,1.9012,1.9018,1.9012,1.9012,1.9012,1.904,1.9041,1.9041,1.9042,0,1.9199,1.9187,1.9183,1.9174,1.9171,1.9163,1.9153,1.9154,1.9124,1.9122,1.9117,1.9112,1.9102,1.9096,1.9084,1.9073,1.9052,1.9049,1.9052,1.906,1.9067,1.9062,1.8994,1.9048,1.9047,1.9047,1.9047,1.9046,1.9246,1.9251,1.9235,1.923,1.922,1.9211,1.9212,1.9196,1.9191,1.9181,1.9165,1.9162,1.9146,1.9129,1.9119,1.9116,1.9104,1.9109,1.911,1.9112,1.9115,1.9068,1.9114,1.9114,1.9114,1.9113,1.9113,0,1.9305,1.9293,1.9289,1.9276,1.9272,1.9251,1.9239,1.9237,1.9235,1.9222,1.9216,1.9209,1.9202,1.9181,1.9172,1.9173,1.9163,1.9171,1.9171,1.9169,1.9127,1.9125,1.918,1.918,1.918,1.918,1.918,1.918,1.9335,1.9341,1.9327,1.9327,1.9314,1.9311,1.9305,1.9296,1.9285,1.9279,1.9273,1.9259,1.9242,1.9231,1.9223,1.9217,1.9215,1.9226,1.9217,1.9178,1.9172,1.9166,1.9164,1.9226,1.9226,1.9259,1.9259,1.9259]}]]